Regional Weather Roundup
Issued by NWS Little Rock, AR

Home | Current Version | Previous Version | Graphics & Text | Print | Product List | Glossary On
Versions: 1 2 3 4 5 6 7 8 9 10 11 12 13 14 15 16 17 18 19 20 21 22 23 24 25 26 27 28 29 30 31 32 33 34 35 36 37 38 39 40 41 42 43 44 45 46 47 48 49 50
000
ASUS44 KLZK 301205
RWRLZK

WEATHER ROUNDUP FOR ARKANSAS
NATIONAL WEATHER SERVICE LITTLE ROCK AR
700 AM CDT SAT AUG 30 2014

NOTE: "FAIR" INDICATES FEW OR NO CLOUDS BELOW 12,000 FEET WITH NO
SIGNIFICANT WEATHER AND/OR OBSTRUCTIONS TO VISIBILITY.

ARZ001-003-010-029-301300-
NORTHWEST ARKANSAS

CITY           SKY/WX    TMP DP  RH WIND       PRES   REMARKS
FAYETTEVILLE   LGT RAIN  71  70  96 S8        30.00R
6HR MIN TEMP:  69; 6HR MAX TEMP:  72; 6HR PCP:  0.23;

FORT SMITH     CLOUDY    73  71  93 NE5       29.97R FOG
6HR MIN TEMP:  73; 6HR MAX TEMP:  74; 6HR PCP:  0.08;

HARRISON       MOCLDY    71  70  96 S6        30.00R
6HR MIN TEMP:  69; 6HR MAX TEMP:  72;

BENTONVILLE    MOCLDY    72  68  88 S5        30.00R
6HR MIN TEMP:  70; 6HR MAX TEMP:  72; 6HR PCP:  0.14;

ROGERS         MOCLDY    71  68  90 S8        30.01R
6HR MIN TEMP:  70; 6HR MAX TEMP:  72; 6HR PCP:  0.23;

SILOAM SPGS    PTCLDY    72  64  78 S10       30.00R
6HR MIN TEMP:  70; 6HR MAX TEMP:  73;

HIGHFILL       MOCLDY    71  69  93 S6        29.99R
6HR MIN TEMP:  69; 6HR MAX TEMP:  72; 6HR PCP:  0.04;

SPRINGDALE     LGT RAIN  73  70  88 S13       30.01S
$$

ARZ004-005-016-301300-
NORTH CENTRAL ARKANSAS

CITY           SKY/WX    TMP DP  RH WIND       PRES   REMARKS
BATESVILLE     CLOUDY    73  70  88 SW8       29.99R
6HR MIN TEMP:  72; 6HR MAX TEMP:  73;

FLIPPIN        MOCLDY    72  66  83 CALM      29.98S
6HR MIN TEMP:  70; 6HR MAX TEMP:  72;

MTN HOME       MOCLDY    72  69  90 S6        29.98R
6HR MIN TEMP:  70; 6HR MAX TEMP:  72;

$$

ARZ040-041-301300-
WEST CENTRAL ARKANSAS

CITY           SKY/WX    TMP DP  RH WIND       PRES   REMARKS
MENA           PTCLDY    73  70  88 CALM      30.01R
MOUNT IDA      MOCLDY    73  70  90 CALM      29.98R
6HR MIN TEMP:  73; 6HR MAX TEMP:  75;

$$

ARZ009-017-025-026-028-301300-
NORTHEAST ARKANSAS

CITY           SKY/WX    TMP DP  RH WIND       PRES   REMARKS
CORNING          N/A     73  73 100 CALM      30.00R
JONESBORO      CLOUDY    74  72  93 S3        29.99S
6HR MIN TEMP:  73; 6HR MAX TEMP:  74;

NEWPORT        CLOUDY    74  73  96 S13       30.00R
6HR MIN TEMP:  72; 6HR MAX TEMP:  74;

WALNUT RIDGE   CLOUDY    73  70  88 S5        29.99R
6HR MIN TEMP:  73; 6HR MAX TEMP:  73;

BLYTHEVILLE    CLOUDY    75  73  93 S5        30.01R
6HR MIN TEMP:  74; 6HR MAX TEMP:  75;

$$

ARZ022-023-033-042-044-301300-
CENTRAL ARKANSAS

CITY           SKY/WX    TMP DP  RH WIND       PRES   REMARKS
LITTLE ROCK    CLOUDY    76  70  82 S7        30.00R
6HR MIN TEMP:  74; 6HR MAX TEMP:  76;

N LITTLE ROCK    N/A     75  73  93 SW7       30.00R
6HR MIN TEMP:  73; 6HR MAX TEMP:  75;

JACKSONVILLE   CLOUDY    75  73  93 S3        30.00R
6HR MIN TEMP:  73; 6HR MAX TEMP:  75; 6HR PCP:  0.01;

SEARCY         CLOUDY    74  73  96 SW5       30.01R
6HR MIN TEMP:  72; 6HR MAX TEMP:  74;

HOT SPRINGS    CLOUDY    76  72  87 CALM      30.00S
6HR MIN TEMP:  75; 6HR MAX TEMP:  77; 6HR PCP: TRACE;

RUSSELLVILLE   CLOUDY    73  71  93 E3        29.99R
6HR MIN TEMP:  72; 6HR MAX TEMP:  73;

CLINTON        TSTM      72  72 100 SW5       30.02R VSB 1/2
$$

ARZ036-301300-
EAST ARKANSAS

CITY           SKY/WX    TMP DP  RH WIND       PRES   REMARKS
WEST MEMPHIS   LGT RAIN  76  74  93 S5        30.00R
6HR MIN TEMP:  73; 6HR MAX TEMP:  77; 6HR PCP: TRACE;

$$

ARZ050-053-066-070-073-301300-
SOUTHWEST ARKANSAS

CITY           SKY/WX    TMP DP  RH WIND       PRES   REMARKS
ARKADELPHIA    FAIR      75  75 100 CALM      30.00R
6HR MIN TEMP:  75; 6HR MAX TEMP:  77; 6HR PCP: TRACE;

CAMDEN         LGT RAIN  73  72  94 S3        29.99S
TEXARKANA      CLOUDY    75  73  93 S5        29.98S
6HR MIN TEMP:  75; 6HR MAX TEMP:  77;

EL DORADO      LGT RAIN  73  73 100 SE3       29.99S
6HR MIN TEMP:  73; 6HR MAX TEMP:  77; 6HR PCP:  0.04;

DE QUEEN       FOG       70  69  97 CALM      29.97R VSB 3/4
6HR MIN TEMP:  70; 6HR MAX TEMP:  74;

$$

ARZ056-057-069-301300-
SOUTHEAST ARKANSAS

CITY           SKY/WX    TMP DP  RH WIND       PRES   REMARKS
PINE BLUFF     LGT RAIN  75  72  90 CALM      30.00F
6HR MIN TEMP:  74; 6HR MAX TEMP:  77; 6HR PCP:  0.02;

STUTTGART      CLOUDY    75  72  88 SW6       30.02S
6HR MIN TEMP:  73; 6HR MAX TEMP:  77; 6HR PCP:  0.02;

MONTICELLO     LGT RAIN  76  74  93 CALM      30.00S FOG
6HR MIN TEMP:  76; 6HR MAX TEMP:  79; 6HR PCP:  0.05;


$$




USA.gov is the U.S. government's official web portal to all federal, state and local government web resources and services.